Truth Or Consequences, NM

2:43 AM MDT on October 17, 2017 (GMT -0600)
Truth Or Consequences Municipal

Weather History for KTCS - March, 2014

Change the Weather History Date:

Wednesday, March 19, 2014

  Actual Average Record
Temperature  
Mean Temperature 50 °F -  
Max Temperature 64 °F 67 °F 85 °F (2017)
Min Temperature 36 °F 39 °F 28 °F (1999)
Degree Days  
Heating Degree Days 15    
Month to date heating degree days 234  
Since 1 July heating degree days 2650  
Cooling Degree Days 0    
Month to date cooling degree days 0  
Year to date cooling degree days 1  
Moisture  
Dew Point 7 °F    
Average Humidity 22    
Maximum Humidity 32    
Minimum Humidity 11    
Precipitation  
Precipitation 0.00 in - 0.07 in (2015)
Month to date precipitation 0.08  
Year to date precipitation 0.08  
Sea Level Pressure  
Sea Level Pressure 30.01 in    
Wind  
Wind Speed 8 mph (NNE)    
Max Wind Speed 16 mph    
Max Gust Speed 23 mph    
Visibility 10 miles    
Events      
T = Trace of Precipitation, MM = Missing Value Source: NWS Daily Summary

Daily Weather History Graph

Daily Weather History Graph

Search for Another Location

Airport or City:

Trip Planner

Search our weather history database for the weather conditions in past years. The results will help you decide how hot, cold, wet, or windy it might be!

Date:

Astronomy

Mar. 19, 2014 Rise Set
Actual Time 7:14 AM MDT 7:19 PM MDT
Civil Twilight 6:49 AM MDT 7:44 PM MDT
Nautical Twilight 6:20 AM MDT 8:13 PM MDT
Astronomical Twilight 5:51 AM MDT 8:42 PM MDT
Moon 10:30 PM MDT (3/19) 8:51 AM MDT (3/19)
Length of Visible Light 12h 55m
Length of Day
12h 05m
Waning Gibbous, 91% of the Moon is Illuminated
Mar 19
Waning Gibbous
Mar 23
Last Quarter
Mar 30
New
Apr 7
First Quarter
Apr 15
Full

Hourly Weather History & Observations

Time (MDT) Temp. Windchill Dew Point Humidity Pressure Visibility Wind Dir Wind Speed Gust Speed Precip Events Conditions
12:53 AM 48.0 °F - -5.1 °F 11% 29.84 in 10.0 mi North 15.0 mph - N/A   Clear
1:53 AM 46.0 °F 39.6 °F -6.0 °F 11% 29.87 in 10.0 mi North 15.0 mph - N/A   Clear
2:53 AM 45.0 °F 40.1 °F -5.1 °F 12% 29.89 in 10.0 mi North 9.2 mph - N/A   Clear
3:53 AM 43.0 °F 36.4 °F -2.0 °F 15% 29.91 in 10.0 mi North 12.7 mph - N/A   Clear
4:53 AM 39.9 °F 32.9 °F 7.0 °F 26% 29.94 in 10.0 mi North 11.5 mph - N/A   Clear
5:53 AM 39.0 °F 30.6 °F 9.0 °F 29% 29.96 in 10.0 mi NNE 15.0 mph - N/A   Clear
6:53 AM 37.9 °F 30.5 °F 9.0 °F 30% 30.00 in 10.0 mi NNE 11.5 mph - N/A   Clear
7:53 AM 36.0 °F 30.3 °F 9.0 °F 33% 30.05 in 9.0 mi NNE 6.9 mph - N/A   Clear
8:53 AM 42.1 °F 35.7 °F 10.0 °F 27% 30.08 in 8.0 mi NE 11.5 mph - N/A   Clear
9:53 AM 46.0 °F 42.5 °F 12.0 °F 25% 30.11 in 7.0 mi ENE 6.9 mph - N/A   Partly Cloudy
10:53 AM 50.0 °F - 10.9 °F 21% 30.11 in 8.0 mi NE 10.4 mph - N/A   Partly Cloudy
11:53 AM 52.0 °F - 10.0 °F 19% 30.10 in 8.0 mi Variable 6.9 mph - N/A   Scattered Clouds
12:53 PM 55.9 °F - 8.1 °F 15% 30.08 in 10.0 mi East 5.8 mph - N/A   Partly Cloudy
1:53 PM 57.9 °F - 6.1 °F 13% 30.04 in 10.0 mi Calm Calm - N/A   Clear
2:53 PM 59.0 °F - 7.0 °F 13% 30.01 in 10.0 mi ESE 6.9 mph - N/A   Clear
3:53 PM 63.0 °F - 8.1 °F 11% 29.99 in 10.0 mi ENE 8.1 mph - N/A   Clear
4:53 PM 63.0 °F - 8.1 °F 11% 29.99 in 10.0 mi Variable 3.5 mph - N/A   Clear
5:53 PM 64.0 °F - 8.1 °F 11% 29.99 in 10.0 mi Variable 3.5 mph - N/A   Clear
6:53 PM 62.1 °F - 9.0 °F 12% 30.01 in 10.0 mi East 4.6 mph - N/A   Clear
7:53 PM 57.0 °F - 9.0 °F 15% 30.04 in 10.0 mi NNE 4.6 mph - N/A   Clear
8:53 PM 53.1 °F - 8.1 °F 16% 30.05 in 10.0 mi North 5.8 mph - N/A   Clear
9:53 PM 51.1 °F - 7.0 °F 17% 30.06 in 10.0 mi North 6.9 mph - N/A   Clear
10:53 PM 50.0 °F - 7.0 °F 18% 30.06 in 10.0 mi NNW 5.8 mph - N/A   Clear
11:53 PM 46.0 °F 41.9 °F 6.1 °F 20% 30.07 in 10.0 mi NW 8.1 mph - N/A   Clear